RWZ1628 UWKD-UNOO

Flight info

Callsign RWZ1628
Flight time N/A
Altitude 37000
Route RIMIP1J RIMIP L94 OKETI DCT MANUG MANUG5B
Aircraft T204/M-SDE2E3FGHIJ3J4J7RWXY/LB1

Departure

Time 2026-04-30 13:28
Airport Kazan International Airport (UWKD)

Arrival

Time N/A
Airport Omsk Central Airport (UNOO)
Time Latitude Longitude Altitude Speed Heading
2026-04-30 13:05 55.60806 49.29688 415 ft 0 kts 34°
2026-04-30 13:18 55.60794 49.29673 415 ft 2 kts 33°
2026-04-30 13:18 55.60782 49.29658 415 ft 2 kts 33°
2026-04-30 13:19 55.60772 49.29640 415 ft 2 kts 62°
2026-04-30 13:19 55.60768 49.29615 414 ft 2 kts 87°
2026-04-30 13:19 55.60770 49.29590 414 ft 2 kts 114°
2026-04-30 13:19 55.60779 49.29569 413 ft 2 kts 126°
2026-04-30 13:20 55.60782 49.29560 413 ft 0 kts 123°
2026-04-30 13:21 55.60774 49.29581 414 ft 5 kts 124°
2026-04-30 13:22 55.60710 49.29746 418 ft 7 kts 125°
2026-04-30 13:22 55.60684 49.29813 419 ft 5 kts 124°
2026-04-30 13:22 55.60636 49.29936 420 ft 8 kts 125°
2026-04-30 13:23 55.60600 49.30027 419 ft 10 kts 124°
2026-04-30 13:23 55.60481 49.30032 419 ft 12 kts 213°
2026-04-30 13:24 55.60284 49.29887 414 ft 19 kts 169°
2026-04-30 13:24 55.60072 49.30046 411 ft 14 kts 153°
2026-04-30 13:25 55.59922 49.30116 408 ft 4 kts 201°
2026-04-30 13:25 55.59904 49.30099 407 ft 5 kts 208°
2026-04-30 13:26 55.59849 49.29887 405 ft 0 kts 303°
2026-04-30 13:26 55.60078 49.29283 404 ft 101 kts 304°
2026-04-30 13:27 55.61436 49.26008 805 ft 187 kts 324°
2026-04-30 13:28 55.63988 49.29603 3103 ft 238 kts 88°
2026-04-30 13:28 55.63971 49.35842 4747 ft 267 kts 91°
2026-04-30 13:28 55.63937 49.39168 5461 ft 271 kts 91°
2026-04-30 13:29 55.63868 49.45745 6879 ft 275 kts 91°
2026-04-30 13:29 55.63794 49.52422 8325 ft 281 kts 92°
2026-04-30 13:30 55.63666 49.62852 10542 ft 292 kts 92°
2026-04-30 13:31 55.63583 49.70149 12001 ft 305 kts 94°
2026-04-30 13:31 55.63437 49.81664 14180 ft 325 kts 95°
2026-04-30 13:32 55.63316 49.89725 15642 ft 332 kts 96°
2026-04-30 13:32 55.63177 49.97918 17090 ft 340 kts 96°
2026-04-30 13:33 55.63139 50.06343 18529 ft 354 kts 84°
2026-04-30 13:33 55.64761 50.14666 20105 ft 369 kts 70°
2026-04-30 13:34 55.65745 50.18892 20896 ft 374 kts 70°
2026-04-30 13:34 55.68728 50.31860 23290 ft 397 kts 71°
2026-04-30 13:35 55.69781 50.36451 24156 ft 410 kts 71°
2026-04-30 13:35 55.71982 50.46050 25734 ft 435 kts 72°
2026-04-30 13:36 55.74314 50.56182 27193 ft 458 kts 72°
2026-04-30 13:36 55.75515 50.61422 27930 ft 468 kts 72°
2026-04-30 13:36 55.78018 50.72258 29371 ft 485 kts 74°
2026-04-30 13:37 55.79307 50.77855 30082 ft 493 kts 74°
2026-04-30 13:37 55.81953 50.89298 31382 ft 508 kts 74°
2026-04-30 13:38 55.84629 51.00977 32478 ft 512 kts 73°
2026-04-30 13:38 55.85969 51.06782 33017 ft 512 kts 73°
2026-04-30 13:38 55.88694 51.18445 34073 ft 511 kts 72°
2026-04-30 13:39 55.91415 51.30035 35226 ft 506 kts 71°
2026-04-30 13:39 55.94118 51.41505 36353 ft 502 kts 71°
2026-04-30 13:40 55.95479 51.47268 36911 ft 501 kts 70°
2026-04-30 13:40 55.96834 51.52985 37093 ft 505 kts 70°
2026-04-30 13:40 55.98213 51.58758 37064 ft 505 kts 70°
2026-04-30 13:41 56.00937 51.70171 37114 ft 501 kts 70°
2026-04-30 13:41 56.03394 51.81760 37068 ft 494 kts 83°
2026-04-30 13:42 56.04200 51.93798 37132 ft 492 kts 90°
2026-04-30 13:42 56.04865 52.12004 37107 ft 491 kts 91°
2026-04-30 13:43 56.05259 52.24146 37111 ft 490 kts 91°
2026-04-30 13:43 56.05661 52.36317 37111 ft 490 kts 91°
2026-04-30 13:44 56.06079 52.48421 37107 ft 491 kts 91°
2026-04-30 13:44 56.06501 52.60552 37113 ft 492 kts 91°
2026-04-30 13:45 56.06953 52.78739 37111 ft 491 kts 93°
2026-04-30 13:46 56.07208 52.90966 37114 ft 491 kts 93°
2026-04-30 13:46 56.07467 53.03089 37111 ft 491 kts 93°
2026-04-30 13:47 56.07735 53.15311 37116 ft 490 kts 93°
2026-04-30 13:47 56.08011 53.27450 37119 ft 491 kts 92°
2026-04-30 13:48 56.08312 53.39679 37118 ft 491 kts 92°
2026-04-30 13:48 56.08617 53.51854 37114 ft 492 kts 92°
2026-04-30 13:49 56.08895 53.64109 37115 ft 491 kts 93°
2026-04-30 13:49 56.09087 53.76363 37109 ft 491 kts 94°
2026-04-30 13:50 56.09256 53.88517 37113 ft 492 kts 94°
2026-04-30 13:50 56.09545 54.06862 37113 ft 492 kts 94°
2026-04-30 13:51 56.09753 54.19065 37112 ft 493 kts 94°
2026-04-30 13:51 56.09977 54.31267 37114 ft 492 kts 94°
2026-04-30 13:52 56.10735 54.43436 37119 ft 499 kts 86°
2026-04-30 13:52 56.11771 54.55699 37102 ft 499 kts 86°
2026-04-30 13:53 56.12772 54.68024 37094 ft 498 kts 88°
2026-04-30 13:53 56.13763 54.80272 37093 ft 498 kts 87°
2026-04-30 13:54 56.14761 54.92512 37090 ft 499 kts 87°
2026-04-30 13:54 56.15770 55.04773 37111 ft 499 kts 87°
2026-04-30 13:55 56.16803 55.17099 37111 ft 500 kts 86°
2026-04-30 13:55 56.17845 55.29390 37116 ft 499 kts 86°
2026-04-30 13:56 56.18894 55.41649 37118 ft 498 kts 86°
2026-04-30 13:56 56.19952 55.53896 37119 ft 499 kts 86°
2026-04-30 13:57 56.20983 55.66159 37119 ft 500 kts 88°
2026-04-30 13:57 56.21878 55.78464 37110 ft 497 kts 89°
2026-04-30 13:58 56.23199 55.96912 37121 ft 498 kts 89°
2026-04-30 13:59 56.24094 56.09242 37127 ft 499 kts 88°
2026-04-30 13:59 56.25001 56.21578 37125 ft 500 kts 88°
2026-04-30 14:00 56.25921 56.33897 37124 ft 499 kts 88°
2026-04-30 14:00 56.27326 56.52432 37128 ft 501 kts 87°
2026-04-30 14:01 56.28266 56.64911 37124 ft 500 kts 88°
2026-04-30 14:01 56.29082 56.77245 37117 ft 499 kts 89°
2026-04-30 14:02 56.29888 56.89611 37125 ft 499 kts 89°
2026-04-30 14:02 56.30702 57.02042 37121 ft 500 kts 89°
2026-04-30 14:03 56.31531 57.14418 37109 ft 502 kts 89°
2026-04-30 14:03 56.32377 57.26828 37114 ft 502 kts 88°
2026-04-30 14:04 56.33233 57.39244 37112 ft 501 kts 88°
2026-04-30 14:04 56.33637 57.45436 36986 ft 499 kts 89°
2026-04-30 14:04 56.34003 57.51641 37116 ft 501 kts 89°
2026-04-30 14:05 56.34722 57.64137 37124 ft 503 kts 89°
2026-04-30 14:05 56.35438 57.76588 37094 ft 503 kts 90°
2026-04-30 14:06 56.36541 57.95415 37097 ft 502 kts 89°
2026-04-30 14:07 56.37669 58.14153 37114 ft 503 kts 89°
2026-04-30 14:08 56.38823 58.32870 37115 ft 502 kts 89°
2026-04-30 14:08 56.39888 58.51644 37116 ft 505 kts 90°
2026-04-30 14:09 56.40533 58.64208 37123 ft 504 kts 90°
2026-04-30 14:10 56.41465 58.82320 37116 ft 503 kts 90°
2026-04-30 14:10 56.42138 58.95001 37117 ft 503 kts 90°
2026-04-30 14:11 56.42820 59.07616 37105 ft 504 kts 90°
2026-04-30 14:11 56.42919 59.20062 37127 ft 496 kts 98°
2026-04-30 14:12 56.42571 59.32474 37107 ft 496 kts 99°
2026-04-30 14:12 56.42238 59.44752 37105 ft 496 kts 99°
2026-04-30 14:13 56.41917 59.57170 37117 ft 496 kts 98°
2026-04-30 14:13 56.41613 59.69560 37105 ft 496 kts 99°
2026-04-30 14:14 56.41325 59.81918 37104 ft 495 kts 99°
2026-04-30 14:14 56.41036 59.94397 37108 ft 497 kts 98°
2026-04-30 14:15 56.40770 60.06802 37101 ft 497 kts 98°
2026-04-30 14:15 56.40514 60.19294 37098 ft 498 kts 98°
2026-04-30 14:16 56.40254 60.29536 37116 ft 497 kts 99°
2026-04-30 14:16 56.39861 60.44028 37119 ft 496 kts 99°
2026-04-30 14:17 56.39479 60.56394 37116 ft 498 kts 99°
2026-04-30 14:17 56.39057 60.68768 37117 ft 494 kts 100°
2026-04-30 14:18 56.38387 60.88660 37105 ft 495 kts 100°
2026-04-30 14:19 56.37293 61.18711 37113 ft 493 kts 101°
2026-04-30 14:20 56.36692 61.30936 37135 ft 493 kts 102°
2026-04-30 14:20 56.35761 61.49444 37122 ft 496 kts 101°
2026-04-30 14:21 56.35163 61.61766 37130 ft 497 kts 101°
2026-04-30 14:22 56.34289 61.80236 37144 ft 494 kts 102°
2026-04-30 14:22 56.33425 61.98783 37137 ft 499 kts 101°
2026-04-30 14:23 56.32323 62.23501 37129 ft 498 kts 101°
2026-04-30 14:24 56.31529 62.42124 37127 ft 499 kts 101°
2026-04-30 14:25 56.30635 62.63831 37133 ft 502 kts 100°
2026-04-30 14:26 56.29864 62.83304 37135 ft 501 kts 101°
2026-04-30 14:26 56.29392 62.95732 37251 ft 499 kts 101°
2026-04-30 14:27 56.29159 63.01986 37091 ft 502 kts 100°
2026-04-30 14:27 56.28695 63.14522 36992 ft 507 kts 100°
2026-04-30 14:28 56.28246 63.27013 37266 ft 502 kts 100°
2026-04-30 14:28 56.28125 63.30456 37160 ft 503 kts 99°
2026-04-30 14:28 56.27676 63.43642 37155 ft 503 kts 99°
2026-04-30 14:29 56.26430 63.68600 37094 ft 503 kts 104°
2026-04-30 14:30 56.25188 63.87093 37224 ft 499 kts 103°
2026-04-30 14:31 56.24361 63.99556 37042 ft 504 kts 103°
2026-04-30 14:31 56.23553 64.11928 37232 ft 500 kts 103°
2026-04-30 14:31 56.23150 64.18081 37075 ft 503 kts 103°
2026-04-30 14:32 56.22027 64.35741 37208 ft 503 kts 102°
2026-04-30 14:33 56.21561 64.43171 37001 ft 508 kts 102°
2026-04-30 14:33 56.20795 64.55605 37244 ft 503 kts 102°
2026-04-30 14:33 56.20412 64.61847 37074 ft 505 kts 102°
2026-04-30 14:34 56.19772 64.72546 37225 ft 502 kts 103°
2026-04-30 14:34 56.19013 64.85146 37077 ft 505 kts 102°
2026-04-30 14:35 56.17917 65.03999 37029 ft 509 kts 102°
2026-04-30 14:35 56.17564 65.10184 37150 ft 507 kts 102°
2026-04-30 14:36 56.17210 65.16500 37227 ft 505 kts 101°
2026-04-30 14:36 56.16618 65.26997 37000 ft 509 kts 101°
2026-04-30 14:36 56.16278 65.33219 37220 ft 504 kts 101°
2026-04-30 14:37 56.15930 65.39455 37203 ft 505 kts 102°
2026-04-30 14:37 56.14995 65.51874 37055 ft 508 kts 103°
2026-04-30 14:38 56.13971 65.64348 37218 ft 501 kts 103°
2026-04-30 14:38 56.13062 65.75431 37112 ft 502 kts 104°
2026-04-30 14:39 56.12049 65.87791 37117 ft 504 kts 104°
2026-04-30 14:39 56.11054 66.00105 37040 ft 508 kts 103°
2026-04-30 14:40 56.10066 66.12588 37237 ft 500 kts 103°
2026-04-30 14:40 56.09581 66.18690 37189 ft 502 kts 103°
2026-04-30 14:40 56.08852 66.28014 37030 ft 506 kts 103°
2026-04-30 14:41 56.07894 66.40443 37261 ft 501 kts 103°
2026-04-30 14:41 56.06951 66.52782 37142 ft 505 kts 102°
2026-04-30 14:42 56.06009 66.65212 37007 ft 509 kts 103°
2026-04-30 14:42 56.05551 66.71451 37128 ft 504 kts 103°
2026-04-30 14:42 56.05094 66.77563 37271 ft 503 kts 103°
2026-04-30 14:43 56.04632 66.83799 37123 ft 505 kts 103°
2026-04-30 14:43 56.04184 66.89972 37147 ft 505 kts 102°
2026-04-30 14:43 56.03280 67.02427 36988 ft 509 kts 102°
2026-04-30 14:44 56.02834 67.08666 37225 ft 504 kts 102°
2026-04-30 14:44 56.02391 67.14889 37205 ft 507 kts 102°
2026-04-30 14:44 56.01953 67.21104 36934 ft 509 kts 101°
2026-04-30 14:44 56.01526 67.27260 37216 ft 502 kts 101°
2026-04-30 14:45 56.01117 67.32864 37257 ft 505 kts 103°
2026-04-30 14:45 56.00574 67.39007 36963 ft 508 kts 103°
2026-04-30 14:45 56.00023 67.45197 37134 ft 503 kts 103°
2026-04-30 14:46 55.99467 67.51347 37289 ft 503 kts 103°
2026-04-30 14:46 55.98914 67.57478 37095 ft 505 kts 103°
2026-04-30 14:46 55.97960 67.68315 37099 ft 505 kts 103°
2026-04-30 14:47 55.97401 67.74697 37268 ft 501 kts 103°
2026-04-30 14:47 55.96863 67.80878 37102 ft 503 kts 103°
2026-04-30 14:47 55.95801 67.93158 37113 ft 504 kts 103°
2026-04-30 14:48 55.95226 67.99346 36969 ft 507 kts 104°
2026-04-30 14:48 55.94632 68.05447 37141 ft 504 kts 104°
2026-04-30 14:48 55.94020 68.11555 37265 ft 500 kts 104°
2026-04-30 14:48 55.93407 68.17640 37128 ft 502 kts 104°
2026-04-30 14:49 55.92197 68.29744 37122 ft 497 kts 104°
2026-04-30 14:49 55.90998 68.41795 37132 ft 497 kts 104°
2026-04-30 14:50 55.89650 68.55500 37134 ft 496 kts 104°
2026-04-30 14:51 55.87906 68.73487 37128 ft 495 kts 104°
2026-04-30 14:52 55.86169 68.91610 37137 ft 495 kts 104°
2026-04-30 14:52 55.84470 69.09596 37134 ft 496 kts 104°
2026-04-30 14:53 55.81964 69.25195 37116 ft 491 kts 112°
2026-04-30 14:54 55.78417 69.45380 37142 ft 491 kts 112°
2026-04-30 14:55 55.75359 69.62587 37135 ft 491 kts 112°
2026-04-30 14:56 55.71701 69.82984 37132 ft 492 kts 112°
2026-04-30 14:57 55.68581 70.00176 37143 ft 492 kts 112°
2026-04-30 14:57 55.66511 70.11533 36590 ft 469 kts 112°
2026-04-30 14:58 55.64764 70.21126 35650 ft 445 kts 113°
2026-04-30 14:58 55.63833 70.26161 35071 ft 465 kts 112°
2026-04-30 14:58 55.61903 70.36541 33881 ft 480 kts 112°
2026-04-30 14:59 55.59856 70.47491 32527 ft 478 kts 112°
2026-04-30 15:00 55.56715 70.64159 30580 ft 480 kts 112°
2026-04-30 15:00 55.55024 70.73082 29525 ft 481 kts 112°
2026-04-30 15:01 55.52974 70.83878 28240 ft 481 kts 112°
2026-04-30 15:01 55.51928 70.89377 27596 ft 481 kts 112°
2026-04-30 15:01 55.49824 71.00413 26259 ft 455 kts 112°
2026-04-30 15:02 55.48839 71.05567 25528 ft 444 kts 112°
2026-04-30 15:02 55.47864 71.10660 24838 ft 442 kts 112°
2026-04-30 15:03 55.44879 71.26091 22862 ft 445 kts 112°
2026-04-30 15:03 55.42915 71.36196 21592 ft 434 kts 112°
2026-04-30 15:04 55.40996 71.46004 20281 ft 408 kts 112°
2026-04-30 15:04 55.38440 71.59037 18232 ft 362 kts 113°
2026-04-30 15:05 55.36073 71.70990 16190 ft 334 kts 114°
2026-04-30 15:06 55.34577 71.78476 14883 ft 321 kts 113°
2026-04-30 15:06 55.33124 71.85712 13505 ft 312 kts 113°
2026-04-30 15:07 55.31826 71.92166 12228 ft 305 kts 113°
2026-04-30 15:07 55.30370 71.99373 10788 ft 297 kts 112°
2026-04-30 15:08 55.29004 72.06116 9396 ft 290 kts 112°
2026-04-30 15:08 55.27020 72.15811 7486 ft 278 kts 111°
2026-04-30 15:09 55.25751 72.22044 7120 ft 259 kts 111°
2026-04-30 15:09 55.24543 72.27972 7137 ft 261 kts 111°
2026-04-30 15:10 55.23322 72.33980 7137 ft 263 kts 111°
2026-04-30 15:11 55.20855 72.46024 7127 ft 263 kts 110°
2026-04-30 15:11 55.19619 72.52019 7130 ft 263 kts 110°
2026-04-30 15:12 55.17761 72.61037 7121 ft 260 kts 110°
2026-04-30 15:13 55.16542 72.66914 7128 ft 257 kts 111°
2026-04-30 15:14 55.12575 72.77193 5228 ft 257 kts 127°
2026-04-30 15:14 55.09291 72.84465 3398 ft 255 kts 126°
2026-04-30 15:16 55.04168 72.95878 2216 ft 226 kts 125°
2026-04-30 15:17 54.98899 73.00879 1991 ft 213 kts 165°
2026-04-30 15:18 54.94597 73.08485 2018 ft 184 kts 91°
2026-04-30 15:19 54.94678 73.14925 1980 ft 166 kts 81°